Wind_Speed
19 22 20 18 17 16 16 16 16 15 14 14 12 12 11 11 11 11 10 11 11 11 11 10 11 10 10 10 10 10 9 8 7 6 5 4 4 4 5 6 8 6 6
26 21 20 19 17 16 16 15 14 14 13 12 11 11 10 9 9 8 7 7 7 7 7 7 7 7 7 7 7 8 8 8 7 6 6 4 3 2 2 3 3 5 5
25 21 20 19 17 17 15 15 14 13 12 12 11 10 9 9 8 7 7 6 7 8 9 7 4 5 5 6 7 6 8 9 9 9 9 10 7 3 2 2 5 5 5
22 20 19 19 18 17 15 14 14 14 13 12 12 11 10 9 8 7 5 4 3 2 2 3 4 5 6 6 7 7 8 8 9 11 14 14 19 11 5 4 4 5 4
21 19 16 15 15 16 16 15 15 15 15 14 14 13 11 9 5 2 0 1 2 3 4 5 5 5 6 7 7 8 9 9 10 12 16 18 2 5 3 4 1 3 2
21 20 16 16 16 16 15 15 14 13 12 11 9 7 6 5 4 3 3 1 1 3 4 5 5 5 5 7 8 9 9 8 9 11 12 16 5 6 1 5 4 2 2
21 19 16 14 13 14 15 14 13 12 11 11 9 8 6 4 2 2 1 1 2 3 5 6 7 6 6 7 8 8 9 8 9 9 7 5 5 3 6 7 4 3 1
21 20 16 13 11 13 14 15 15 14 13 11 11 9 5 6 4 3 1 2 4 4 4 5 6 7 7 8 9 10 9 8 8 8 6 6 5 7 7 6 6 5 3
19 18 15 14 12 11 13 15 16 15 14 12 9 9 7 5 3 4 5 6 7 9 10 10 12 12 11 11 13 14 13 10 11 6 2 6 5 5 5 6 7 6 7
18 17 16 13 12 11 13 13 14 13 11 12 12 11 11 11 11 14 13 14 12 14 14 15 14 12 11 9 11 13 12 14 12 8 9 10 10 11 11 11 9 9 9
17 15 16 15 12 13 14 15 16 17 16 14 12 11 10 7 7 10 13 13 14 12 13 12 12 10 8 9 10 9 10 16 9 10 12 13 13 14 14 14 11 10 8
21 19 18 17 13 17 17 16 15 15 12 11 9 8 8 9 8 8 9 11 11 11 10 12 9 9 11 11 10 11 11 15 10 11 15 14 15 15 13 10 12 9 9
20 20 21 18 16 16 13 16 14 12 11 13 11 8 8 6 10 8 10 10 8 7 7 8 8 10 12 12 11 12 11 12 9 11 13 13 15 17 14 11 6 11 9
23 21 24 20 18 17 14 17 17 15 10 10 12 10 11 7 8 8 7 5 5 6 7 8 8 9 9 10 9 11 9 10 8 9 11 15 18 17 16 16 15 11 9
29 26 24 21 15 18 20 23 20 17 11 10 12 10 10 10 9 8 8 6 5 6 8 9 9 8 9 9 7 11 10 11 9 10 12 16 17 18 18 17 15 16 20
30 32 27 23 18 18 20 20 19 16 14 8 9 10 9 11 10 6 6 5 8 9 7 7 8 7 9 9 8 7 7 10 11 11 12 15 16 18 18 18 17 15 15
34 32 26 22 17 18 18 16 15 14 10 9 9 10 10 12 11 7 4 8 10 7 5 6 7 5 8 6 4 9 7 5 9 15 15 17 15 17 17 18 18 18 16
34 30 25 21 18 17 17 20 18 17 14 11 9 9 10 13 10 6 7 11 10 6 5 6 9 9 11 8 4 7 5 8 14 14 13 14 18 18 17 17 18 18 16
34 29 24 22 18 20 19 20 18 17 15 14 12 10 10 13 10 5 10 11 7 5 8 7 7 10 9 10 7 5 8 14 13 12 16 14 11 12 17 15 14 19 17
34 30 28 23 21 20 22 22 18 16 15 11 11 12 10 12 11 8 10 10 6 6 9 8 8 11 14 12 5 3 6 12 12 16 15 17 14 13 11 11 11 20 21
37 34 32 28 24 21 20 21 19 21 18 13 9 8 10 11 12 11 8 12 9 9 10 11 9 12 18 13 4 8 12 12 15 16 15 17 17 18 17 16 16 15 19
37 36 33 30 25 21 20 20 23 22 16 13 11 9 10 11 10 11 10 10 11 10 11 12 12 11 15 16 7 3 2 8 16 17 14 14 17 18 21 21 19 17 17
36 36 34 30 26 21 23 22 22 22 19 16 14 12 11 11 11 10 10 10 8 9 12 12 12 13 11 14 20 7 3 1 3 13 17 15 16 20 18 15 18 16 18
35 35 33 29 25 21 27 30 29 24 20 18 17 13 12 12 11 11 10 11 10 10 11 13 13 16 14 13 7 17 17 6 2 3 10 18 14 18 16 17 17 14 18
34 31 30 28 24 27 22 20 19 17 18 25 19 14 12 12 12 10 10 10 12 12 13 13 14 15 18 18 15 7 12 15 15 7 1 6 11 16 16 16 17 14 17
31 28 26 30 27 26 19 17 19 28 29 25 20 16 15 13 13 10 8 10 13 13 13 12 14 14 18 17 15 16 13 6 6 9 3 1 2 12 19 17 18 16 17
Wind_Direction
124 135 139 134 129 125 120 118 113 109 107 106 103 99 90 82 75 72 69 65 56 47 41 37 32 26 28 22 18 15 16 15 16 21 15 23 25 47 69 96 87 64 58
138 135 136 132 127 123 121 119 116 115 114 110 106 102 99 94 88 81 76 73 70 59 45 38 28 19 20 15 12 7 3 2 357 349 335 320 329 5 24 63 70 65 62
124 128 130 131 128 124 121 118 118 117 117 116 113 110 104 102 103 102 94 86 82 75 61 49 31 36 11 3 353 354 350 350 346 335 329 323 308 261 282 41 47 54 53
122 129 126 127 125 116 113 119 123 123 121 124 127 121 120 120 117 108 91 59 18 28 14 346 343 340 339 343 339 337 337 340 338 337 340 347 332 239 198 109 57 64 56
130 134 134 144 141 139 139 136 128 127 129 131 127 125 125 119 107 93 359 339 342 348 347 350 353 345 338 331 329 328 330 331 331 345 350 351 329 217 200 128 68 95 84
130 138 146 148 151 150 152 154 152 152 148 141 148 141 144 174 178 188 222 253 339 3 360 351 359 360 353 345 344 340 335 328 327 354 6 20 79 163 121 67 70 85 84
133 139 154 158 163 154 156 158 155 156 159 165 168 166 190 203 204 161 149 58 19 358 348 348 350 355 352 351 352 349 347 348 350 359 1 21 57 37 51 46 43 49 50
141 139 148 149 145 145 152 159 146 149 152 160 167 169 166 127 124 121 56 7 11 12 16 13 17 19 19 18 14 3 347 342 3 10 351 45 45 51 39 33 26 5 338
149 148 156 156 157 160 161 156 156 154 156 159 145 132 114 93 109 91 72 64 60 56 51 47 48 53 48 40 39 29 24 28 13 355 28 52 41 24 357 349 350 358 337
149 158 156 159 160 159 165 167 167 156 141 137 135 124 105 84 67 66 69 67 67 58 56 54 50 49 48 54 44 43 50 40 35 71 63 49 30 32 24 16 354 322 316
152 154 150 144 153 146 138 130 122 115 112 109 111 116 106 90 83 66 64 67 59 56 50 51 46 39 45 54 44 28 40 39 62 68 57 38 34 41 37 29 20 19 4
159 157 152 155 145 134 131 125 122 117 113 105 106 113 112 122 97 70 68 63 61 47 52 43 38 27 35 35 36 37 54 48 45 53 47 31 25 35 41 43 39 28 23
165 165 168 168 151 141 139 135 128 131 141 143 125 122 119 120 100 101 83 70 74 54 63 45 26 40 38 28 32 31 50 50 26 49 51 39 35 39 45 26 26 25 11
175 175 174 175 169 169 153 154 143 135 138 141 136 129 133 125 115 100 92 84 70 54 60 36 28 48 42 32 30 22 56 60 52 52 60 55 57 58 49 44 35 18 9
173 172 170 164 157 161 154 144 142 137 133 130 148 131 120 123 100 99 90 87 66 59 57 37 43 50 42 33 43 20 51 63 67 69 74 60 61 60 55 53 54 54 48
173 167 161 166 160 147 146 146 139 140 142 146 137 135 125 124 99 110 101 85 71 60 55 50 36 37 41 37 51 47 59 77 77 79 75 66 58 58 60 61 59 47 47
153 152 154 161 167 154 149 149 140 146 153 138 128 133 129 121 97 109 104 85 72 50 61 64 52 56 45 32 59 45 71 95 87 92 77 64 62 55 62 64 55 50 53
147 145 147 153 159 151 145 141 136 137 134 125 108 108 115 116 102 116 95 89 71 64 50 60 46 47 29 12 20 43 66 105 111 100 86 72 65 67 62 62 56 48 55
146 143 145 156 155 153 152 147 141 137 130 126 119 112 113 123 98 85 102 82 91 62 49 55 62 37 34 2 349 37 109 104 105 100 90 76 72 66 71 67 65 41 54
148 152 152 155 156 155 150 146 139 137 134 137 131 116 114 123 100 98 103 82 67 66 57 65 71 56 31 0 6 34 132 122 109 111 95 84 80 84 67 49 52 57 53
150 151 152 156 161 162 156 155 150 142 140 131 127 127 121 120 120 104 107 89 79 68 62 57 68 63 39 15 24 72 125 118 102 106 98 95 93 78 65 51 43 31 28
145 151 156 161 166 174 178 173 164 158 154 151 140 122 122 119 120 111 99 97 87 75 66 66 62 67 59 45 44 64 72 76 93 98 87 98 91 84 78 65 54 45 31
149 156 160 166 172 182 187 189 164 153 144 139 138 127 112 113 106 109 108 98 100 87 74 72 66 64 73 66 58 74 83 138 66 79 74 99 104 97 85 67 58 51 34
154 160 165 169 177 188 166 158 161 159 157 155 144 136 121 113 107 105 111 103 95 96 89 83 76 69 75 62 77 63 77 87 115 140 53 64 90 95 79 67 58 50 30
154 157 167 167 174 165 169 178 181 172 172 158 149 141 131 126 122 119 123 120 104 96 84 83 80 79 76 73 64 71 74 71 70 84 24 351 77 98 83 67 62 54 38
157 164 168 168 174 168 163 175 177 158 150 147 150 147 138 125 123 128 125 121 114 100 94 85 87 86 83 84 73 73 87 91 63 74 103 349 18 103 87 67 62 54 39
Height
783 783 785 789 790 792 795 797 799 801 804 805 807 809 810 811 813 813 814 815 815 816 817 817 817 817 817 817 817 817 816 816 816 816 815 815 816 816 816 814 814 815 815
780 785 786 789 791 793 796 798 800 801 804 806 808 810 811 812 813 815 816 816 816 817 818 818 819 818 817 818 818 817 817 816 816 816 815 816 817 817 817 817 815 815 815
783 785 787 790 793 795 797 799 801 803 805 807 809 811 812 813 814 815 816 817 817 817 818 818 819 818 817 817 818 817 816 816 815 815 815 816 816 816 817 817 816 815 816
783 787 789 791 794 797 799 800 802 804 806 808 809 811 813 814 814 815 816 816 817 817 817 817 817 816 816 816 816 816 815 814 814 814 814 815 813 816 815 815 815 815 816
784 789 791 793 795 798 800 803 803 805 806 808 810 812 813 815 816 816 816 816 817 817 816 817 816 816 815 815 815 815 814 814 813 813 811 811 812 816 816 813 814 814 815
785 788 791 793 796 799 801 803 805 807 807 809 811 812 814 815 815 816 816 816 816 816 816 817 816 815 814 814 814 813 813 813 812 813 812 812 812 814 815 815 814 814 814
785 789 793 795 797 800 802 804 805 808 809 809 811 812 813 814 815 816 817 816 815 815 815 816 816 814 814 814 813 813 812 812 812 813 813 813 813 814 814 813 814 814 813
786 790 794 797 799 800 802 804 804 807 809 811 811 811 813 813 814 815 816 816 816 816 815 815 814 813 813 813 813 813 812 812 812 813 812 812 813 813 812 811 813 813 812
787 790 794 796 798 800 801 803 804 806 807 809 812 812 813 813 813 814 814 814 816 816 816 815 814 814 814 814 814 813 812 811 811 810 811 811 811 812 812 812 813 811 811
789 791 793 797 798 799 801 803 804 805 807 809 810 812 813 814 815 815 815 815 816 817 817 816 816 816 815 814 814 813 812 813 811 811 811 811 811 812 811 811 810 810 809
790 792 794 796 798 799 802 805 806 807 809 811 812 812 813 814 816 816 816 816 817 817 817 817 817 816 816 814 814 814 813 812 812 812 812 813 812 812 811 811 810 809 807
788 791 794 796 798 800 803 805 807 808 811 812 814 814 813 816 816 816 816 817 817 817 817 817 817 816 815 815 814 813 814 814 812 812 813 813 812 812 811 810 811 809 808
789 792 794 796 798 800 802 803 806 808 809 812 813 816 815 815 815 816 816 817 817 817 816 816 816 815 815 815 814 813 813 814 813 813 814 813 812 812 812 812 811 810 809
788 790 794 796 798 800 801 803 805 806 808 811 812 814 814 815 815 816 816 816 816 816 817 815 816 816 816 815 815 814 813 814 813 814 814 814 813 813 813 813 812 811 810
782 786 791 795 798 801 802 802 803 805 807 810 812 813 814 814 816 816 817 815 816 816 817 816 816 816 815 815 815 815 814 814 814 814 814 814 814 814 814 814 814 812 812
778 784 789 793 797 798 800 801 803 805 807 809 811 812 813 814 816 817 816 816 816 817 817 817 817 815 815 815 815 815 815 816 815 815 816 816 816 816 816 816 815 814 814
777 782 788 794 797 798 800 801 803 805 807 809 810 812 813 814 815 816 816 816 816 817 816 816 816 815 814 813 814 815 816 816 815 816 817 817 817 818 818 817 818 817 816
775 782 788 794 799 801 801 803 806 806 806 808 811 813 814 814 815 815 816 816 816 815 815 815 815 815 815 814 814 814 815 816 817 817 818 819 819 819 821 821 820 820 819
773 781 788 794 798 801 803 804 806 808 809 808 809 811 813 814 814 815 816 815 814 813 813 814 814 814 814 814 813 814 815 815 817 818 819 819 821 821 822 823 822 822 821
768 777 785 793 798 800 802 804 806 808 810 813 812 810 811 812 814 815 816 815 814 812 814 814 814 815 814 812 812 813 815 815 817 818 820 821 822 823 823 824 824 823 823
763 772 781 789 795 799 802 803 806 807 810 812 813 812 812 812 814 815 815 815 814 814 815 815 814 815 814 813 812 812 814 817 817 819 822 822 823 824 825 826 826 824 824
761 769 776 784 791 796 799 801 803 806 809 810 812 813 814 814 814 815 816 815 815 815 815 815 815 816 816 815 813 813 818 820 821 823 823 824 825 826 826 827 827 826 826
757 766 773 780 787 794 798 801 804 806 809 813 814 814 815 815 815 815 817 817 816 816 817 818 817 817 816 817 814 815 820 822 823 826 826 828 827 827 828 828 828 828 828
754 763 771 777 784 792 795 797 800 803 807 812 814 815 814 815 816 816 819 818 818 819 819 818 818 818 817 817 817 818 818 820 825 827 828 830 831 829 829 829 830 830 828
754 762 770 777 783 790 793 796 798 802 805 808 811 813 814 815 816 818 820 819 819 820 819 819 818 819 818 817 818 818 820 822 824 826 833 831 832 832 831 831 832 831 830
754 762 768 774 781 786 790 794 797 799 802 806 810 813 813 814 816 819 819 819 820 819 820 821 820 820 821 821 821 822 823 824 827 829 833 833 833 834 833 834 834 833 831